Notices

What's New in latest Release from April 7th, 2021:

- Updated Glossary, including Speed of Maximum Gust, and Total Hourly Precipitation

- Updated national and regional climate services offices contacts and prices information

- Addition of station inventory lists for 1981-2010, 1971-2000, and 1961-1990 Normals.

If you haven't already, please take our survey and provide feedback about our website: https://eccc.sondage-survey.ca/f/LanguageSelection.aspx?s=442ca660-fcf1-47c0-95a9-59707d6fd709

Hourly Data Report for November 05, 2017

CARBERRY CS
MANITOBA

49°54'20.900" N
99°21'26.800" W
383.50 m
5010547
71170
WZE

Download Data

Hourly Data (November 2017)
Hourly Data Report for November 5, 2017
TIME
LST
Temp Definition
°C
Dew Point Definition
°C
Rel Hum Definition
%
Precip. Amount Definition
mm

Wind Dir Definition
10's deg

Wind Spd Definition
km/h
Visibility Definition
km
Stn Press Definition
kPa
Hmdx Definition


Wind Chill Definition


Weather Definition


00:00 -7.3 -9.8 83 0.0 28 21   96.34   -15 LegendNANA
01:00 -7.6 -9.9 84 0.0 28 21   96.41   -15 LegendNANA
02:00 -6.4 -9.4 79 0.0 27 23   96.46   -14 LegendNANA
03:00 -6.8 -9.4 82 0.0 28 26   96.54   -15 LegendNANA
04:00 -7.6 -9.9 83 0.0 27 25   96.59   -16 LegendNANA
05:00 -7.2 -9.7 82 0.0 28 22   96.63   -15 LegendNANA
06:00 -7.4 -10.0 81 0.0 28 25   96.72   -15 LegendNANA
07:00 -10.4 -12.7 84 0.0 27 18   96.78   -18 LegendNANA
08:00 -10.5 -12.9 83 0.0 27 22   96.89   -19 LegendNANA
09:00 -10.3 -13.7 76 0.0 27 23   96.94   -19 LegendNANA
10:00 -9.2 -13.3 72 0.0 28 23   96.95   -17 LegendNANA
11:00 -8.4 -13.0 70 0.2 27 28   97.00   -17 LegendNANA
12:00 -8.1 -12.7 70 0.0 26 35   97.00   -18 LegendNANA
13:00 -7.7 -12.1 70 0.0 26 37   96.96   -17 LegendNANA
14:00 -7.6 -12.9 66 0.0 26 34   96.96   -17 LegendNANA
15:00 -8.2 -14.1 62 0.0 27 30   96.98   -17 LegendNANA
16:00 -8.7 -14.1 65 0.0 27 28   97.02   -18 LegendNANA
17:00 -9.4 -14.2 68 0.0 26 23   97.05   -18 LegendNANA
18:00 -10.0 -14.0 72 0.0 24 15   97.05   -17 LegendNANA
19:00 -10.0 -14.0 72 0.0 25 26   97.08   -19 LegendNANA
20:00 -10.9 -14.5 75 0.0 26 25   97.10   -20 LegendNANA
21:00 -11.0 -14.7 74 0.0 26 29   97.16   -21 LegendNANA
22:00 -11.8 -15.1 76 0.0 25 26   97.20   -21 LegendNANA
23:00 -12.0 -15.3 76 0.0 25 21   97.22   -21 LegendNANA

Notes on Data Quality.

Legend

  • E = Estimated
  • M = Missing
  • NA = Not Available*
  • [empty] = Indicates an unobserved value
Date modified: